Location: Ay?beleni
(36.6500°N, 30.3000°E)
Time: 02:42:06
(UTC+00:00)

Okean-O - Pass Details

Date: 16 October 2021
Orbit: 639 x 640 km, 98.2° (Epoch: 04 December)

Event Time Altitude Azimuth Distance (km) Brightness Sun altitude
Exits shadow 16:30:06 24° 83° (E) 1,341 3.7 -14.6°
Maximum altitude 16:30:45 24° 69° (ENE) 1,313 3.7 -14.7°
Drops below altitude 10° 16:34:19 10° 15° (NNE) 2,038 5.1 -15.5°
Sets 16:36:50 0° 2° (N) 2,951 6.0 -16.0°
